Wright-Patt AFB, OH

1:22 PM EDT on June 23, 2017 (GMT -0400)
Wright-Patterson Air Force Base

Weather History for KFFO - August, 2013

Change the Weather History Date:

Wednesday, August 28, 2013

  Actual Average Record
Temperature  
Mean Temperature 82 °F -  
Max Temperature 91 °F 80 °F 91 °F (2013)
Min Temperature 74 °F 59 °F 51 °F (2010)
Cooling Degree Days 17    
Growing Degree Days 32 (Base 50)    
Moisture  
Dew Point 72 °F    
Average Humidity 73    
Maximum Humidity 90    
Minimum Humidity 56    
Precipitation  
Precipitation 0.00 in - - ()
Sea Level Pressure  
Sea Level Pressure 29.92 in    
Wind  
Wind Speed 10 mph (West)    
Max Wind Speed 14 mph    
Max Gust Speed 22 mph    
Visibility 10 miles    
Events      
Averages and records for this station are not official NWS values.
T = Trace of Precipitation, MM = Missing Value Source: NWS Daily Summary

Daily Weather History Graph

Daily Weather History Graph

Search for Another Location

Airport or City:

Trip Planner

Search our weather history database for the weather conditions in past years. The results will help you decide how hot, cold, wet, or windy it might be!

Date:

Astronomy

Aug. 28, 2013 Rise Set
Actual Time 7:00 AM EDT 8:13 PM EDT
Civil Twilight 6:32 AM EDT 8:41 PM EDT
Nautical Twilight 5:59 AM EDT 9:14 PM EDT
Astronomical Twilight 5:24 AM EDT 9:49 PM EDT
Moon 12:08 AM EDT (8/28) 2:49 PM EDT (8/28)
Length of Visible Light 14h 08m
Length of Day
13h 12m
Waning Gibbous, 47% of the Moon is Illuminated
Aug 28
Waning Gibbous
Sep 5
New
Sep 12
First Quarter
Sep 19
Full
Sep 26
Last Quarter

Hourly Weather History & Observations

Time (EDT) Temp. Heat Index Dew Point Humidity Pressure Visibility Wind Dir Wind Speed Gust Speed Precip Events Conditions
12:58 AM 77.7 °F - 71.2 °F 80% 29.96 in 10.0 mi SW 9.2 mph - N/A   Partly Cloudy
1:58 AM 74.7 °F - 70.5 °F 87% 29.95 in 10.0 mi SW 5.8 mph - N/A   Clear
2:58 AM 76.5 °F - 71.1 °F 83% 29.95 in 10.0 mi SW 10.4 mph - N/A   Partly Cloudy
3:58 AM 75.9 °F - 71.4 °F 86% 29.94 in 10.0 mi SSW 9.2 mph - N/A   Partly Cloudy
4:58 AM 75.2 °F - 71.2 °F 87% 29.94 in 10.0 mi SW 10.4 mph - N/A   Clear
5:58 AM 74.8 °F - 71.4 °F 89% 29.93 in 10.0 mi SW 9.2 mph - N/A   Clear
6:58 AM 74.3 °F - 71.2 °F 90% 29.91 in 10.0 mi SW 9.2 mph - N/A   Clear
7:55 AM 75.0 °F - 71.6 °F 89% 29.90 in 10.0 mi SW 12.7 mph - N/A   Mostly Cloudy
8:58 AM 78.1 °F - 71.2 °F 79% 29.90 in 10.0 mi WSW 12.7 mph - N/A   Clear
9:58 AM 81.7 °F 85.6 °F 70.7 °F 69% 29.91 in 10.0 mi WSW 10.4 mph - N/A   Clear
10:58 AM 85.1 °F 89.8 °F 70.5 °F 61% 29.92 in 10.0 mi West 12.7 mph 21.9 mph N/A   Clear
11:58 AM 87.4 °F 93.1 °F 71.1 °F 58% 29.91 in 10.0 mi WNW 11.5 mph - N/A   Clear
12:58 PM 88.2 °F 94.6 °F 71.8 °F 58% 29.90 in 10.0 mi West 12.7 mph - N/A   Partly Cloudy
12:59 PM 87.8 °F 93.8 °F 71.6 °F 58% 29.91 in 10.0 mi WNW 12.7 mph - N/A   Partly Cloudy
1:58 PM 89.4 °F 96.3 °F 71.8 °F 56% 29.90 in 10.0 mi West 12.7 mph - N/A   Scattered Clouds
2:43 PM 89.6 °F 98.2 °F 73.4 °F 59% 29.90 in 10.0 mi West 13.8 mph - N/A   Partly Cloudy
2:58 PM 90.9 °F 99.4 °F 73.2 °F 56% 29.89 in 10.0 mi West 12.7 mph - N/A   Scattered Clouds
3:58 PM 90.1 °F 98.9 °F 73.4 °F 58% 29.89 in 10.0 mi WNW 10.4 mph - N/A   Scattered Clouds
4:58 PM 88.3 °F 97.4 °F 74.3 °F 63% 29.90 in 10.0 mi WNW 10.4 mph - N/A   Partly Cloudy
5:58 PM 87.6 °F 96.2 °F 74.3 °F 64% 29.89 in 10.0 mi NW 11.5 mph - N/A   Partly Cloudy
6:58 PM 86.7 °F 94.6 °F 73.8 °F 65% 29.90 in 10.0 mi NNW 8.1 mph - N/A   Partly Cloudy
7:58 PM 84.6 °F 91.4 °F 73.4 °F 69% 29.92 in 10.0 mi NW 6.9 mph - N/A   Clear
8:58 PM 82.6 °F 88.6 °F 73.4 °F 74% 29.93 in 10.0 mi North 8.1 mph - N/A   Partly Cloudy
9:58 PM 79.7 °F - 72.7 °F 79% 29.95 in 10.0 mi NNE 8.1 mph - N/A   Partly Cloudy
10:58 PM 77.5 °F - 72.9 °F 85% 29.98 in 10.0 mi NNE 10.4 mph - N/A   Clear
11:58 PM 75.6 °F - 72.0 °F 89% 29.98 in 10.0 mi North 4.6 mph - N/A   Clear